[[{"header":{"parameterUnit":"m.s-1","parameterCategory":1,"la1":30.2991,"la2":30.254,"lo1":-89.0895,"lo2":-89.0444,"dy":0.0017,"dx":0.0017,"nx":28,"ny":28,"refTime":"2023-10-10T09:00:00:Z","depth":0,"parameterNumber":2,"parameterNumberName":"U-component_of_WINDS"},"data":[0,0,0,0,0,0,0,0,0,0,0,0,0,0,0,0,0,0,0,0,0,0,0,0,0,0,0,0,0,0,0,0,0,0,0,0,0,0,0,0,0,0,0,0,0,0,0,0,0,0,0,0,0,0,0,0,0,0,-5.2978,-5.2977,0,-5.2945,-5.2945,-5.2945,-5.278,-5.2776,-5.2772,-5.2769,-5.2741,-5.2744,-5.2747,0,0,0,0,0,0,0,0,0,0,0,0,0,-5.2904,-5.2906,-5.2978,-5.2977,-5.2977,-5.2945,-5.2945,-5.2944,-5.2781,-5.2776,-5.2771,-5.2767,-5.274,-5.2744,-5.2747,0,0,0,0,0,0,0,0,0,0,0,0,0,-5.2911,-5.2907,-5.2978,-5.2891,-5.2883,-5.2945,-5.2945,-5.2944,-5.2782,-5.2776,-5.277,-5.2765,-5.2739,-5.2743,-5.2748,-5.2892,0,0,-5.2761,-5.2763,0,0,0,0,0,0,0,0,-5.291,-5.2914,-5.2905,-5.2898,-5.2889,-5.2861,-5.2909,-5.2927,-5.2783,-5.2821,-5.2769,-5.2762,-5.2786,-5.2786,-5.2793,-5.2891,-5.289,-5.2762,-5.2764,-5.2766,-5.2767,0,0,0,0,0,0,0,-5.291,-5.2914,-5.2965,-5.2905,-5.2895,-5.2856,-5.2851,-5.2911,-5.2837,-5.2817,-5.2805,-5.2803,-5.2781,-5.2789,-5.2791,-5.2889,-5.2761,-5.2765,-5.2768,-5.277,-5.3105,-5.3111,0,0,0,0,0,0,-5.2921,-5.2915,-5.2966,-5.2964,-5.2885,-5.2862,-5.2856,-5.2876,-5.2836,-5.2824,-5.2808,-5.2796,-5.2785,-5.2787,-5.279,-5.2957,-5.2766,-5.277,-5.2773,-5.3099,-5.3106,-5.3113,0,0,0,0,0,0,-5.292,-5.2927,-5.2967,-5.2936,-5.2938,-5.287,-5.2893,-5.2878,-5.2886,-5.2829,-5.2815,-5.283,-5.278,-5.2784,-5.2868,-5.2953,-5.2772,-5.2776,-5.3091,-5.3101,-5.311,-5.3292,0,0,0,0,0,0,-5.2919,-5.2928,-5.2981,-5.2938,-5.294,-5.3045,-5.2898,-5.2882,-5.2894,-5.2877,-5.2846,-5.2836,-5.2776,-5.2862,-5.2872,-5.2956,-5.2779,-5.3083,-5.3096,-5.3107,-5.3278,-5.3307,-5.3331,0,0,0,0,0,-5.2917,-5.3034,-5.2984,-5.2991,-5.3005,-5.305,-5.3051,-5.2979,-5.2901,-5.2955,-5.2918,-5.2837,-5.2943,-5.2872,-5.2882,-5.2969,-5.3078,-5.3092,-5.3106,-5.3266,-5.3301,-5.333,0,0,0,0,0,0,-5.309,-5.3027,-5.2971,-5.3078,-5.3071,-5.3022,-5.3087,-5.3018,-5.3033,-5.3017,-5.2928,-5.2923,-5.302,-5.3003,-5.2925,-5.3107,-5.2996,-5.3013,-5.3115,-5.3147,-5.3173,-5.3176,-5.2783,0,0,0,0,0,-5.3141,-5.3181,-5.3124,-5.3225,-5.3223,-5.3157,-5.3173,-5.3118,-5.3107,-5.3104,-5.3073,-5.3067,-5.3099,-5.3122,-5.3148,-5.3275,-5.3266,-5.3339,-5.3366,-5.3388,-5.3404,-5.347,-5.3502,-5.316,-5.3159,-5.3159,0,0,-5.3246,-5.3217,-5.3248,-5.3259,-5.3246,-5.3292,-5.3155,-5.3209,-5.3242,-5.3112,-5.3189,-5.3167,-5.3155,-5.3261,-5.3306,-5.325,-5.3496,-5.3406,-5.3424,-5.3427,-5.3488,-5.3521,-5.3549,-5.3169,-5.3167,-5.3166,0,0,-5.3461,-5.3442,-5.3524,-5.3514,-5.3496,-5.3451,-5.3471,-5.3433,-5.3413,-5.3488,-5.3392,-5.3432,-5.3488,-5.3484,-5.3489,-5.3703,-5.363,-5.3715,-5.3853,-5.3919,-5.3946,-5.3969,-5.4047,-5.4075,-5.3731,-5.3731,-5.3731,0,-5.3595,-5.3657,-5.3575,-5.3635,-5.3643,-5.3527,-5.361,-5.3605,-5.3598,-5.3607,-5.3543,-5.3612,-5.3595,-5.3699,-5.3752,-5.3759,-5.3781,-5.3718,-5.3948,-5.3971,-5.3992,-5.4065,-5.4094,-5.3741,-5.374,-5.3739,-5.3738,0,-5.3823,-5.3868,-5.3937,-5.3931,-5.3947,-5.4019,-5.3949,-5.3976,-5.3919,-5.3882,-5.3961,-5.3937,-5.3957,-5.3977,-5.3923,-5.4074,-5.4039,-5.3964,-5.385,-5.4036,-5.4103,-5.413,-5.3756,-5.3753,-5.375,-5.3747,0,0,-5.4147,-5.4094,-5.4121,-5.4117,-5.4089,-5.4124,-5.4191,-5.4208,-5.4233,-5.4233,-5.4287,-5.4338,-5.4267,-5.4274,-5.4218,-5.4276,-5.4449,-5.4193,-5.4191,-5.4242,-5.4615,-5.4673,-5.4706,-5.4399,-5.4404,-5.4408,-5.4616,0,-5.4353,-5.4462,-5.4391,-5.4513,-5.4554,-5.4444,-5.4502,-5.4493,-5.446,-5.4492,-5.4456,-5.4493,-5.4397,-5.44,-5.4452,-5.4417,-5.4523,-5.4401,-5.4451,-5.4454,-5.4458,-5.4741,-5.4802,-5.4999,-5.4642,-5.4646,-5.4649,0,-5.4608,-5.4617,-5.4743,-5.4707,-5.4722,-5.4775,-5.4786,-5.4817,-5.4805,-5.4777,-5.4784,-5.4714,-5.4779,-5.4668,-5.4757,-5.4676,-5.4692,-5.4678,-5.4684,-5.4687,-5.4564,-5.4752,-5.506,-5.509,-5.4689,-5.4686,-5.4683,0,-5.4833,-5.4876,-5.4957,-5.4957,-5.4917,-5.4958,-5.4944,-5.4925,-5.494,-5.495,-5.4959,-5.4978,-5.4989,-5.5005,-5.4943,-5.4867,-5.5041,-5.4924,-5.5021,-5.5023,-5.5063,-5.5062,-5.5379,-5.5074,-5.5073,-5.5072,-5.5072,0,-5.5071,-5.5153,-5.5057,-5.5107,-5.5196,-5.5114,-5.5204,-5.5178,-5.5163,-5.5207,-5.5114,-5.5158,-5.5072,-5.5109,-5.5061,-5.5143,-5.5148,-5.5128,-5.5115,-5.5137,-5.514,-5.5147,-5.5132,-5.508,-5.5079,-5.5077,-5.5076,0,-5.5337,-5.5277,-5.5357,-5.5313,-5.5303,-5.5371,-5.5333,-5.5379,-5.5339,-5.5396,-5.5405,-5.5344,-5.5382,-5.5321,-5.5352,-5.5319,-5.5433,-5.5398,-5.5437,-5.5427,-5.5528,-5.552,-5.5862,-5.5903,-5.5571,-5.5574,-5.5577,0,-5.5494,-5.5553,-5.5515,-5.5537,-5.5527,-5.5564,-5.5579,-5.5501,-5.552,-5.5511,-5.5558,-5.5587,-5.5606,-5.5672,-5.5632,-5.5655,-5.562,-5.5739,-5.5623,-5.5644,-5.5623,-5.562,-5.5626,-5.5763,-5.5767,-5.577,-5.5773,0,-5.5778,-5.5745,-5.5768,-5.5782,-5.5802,-5.581,-5.5811,-5.5835,-5.5752,-5.578,-5.5816,-5.5831,-5.5861,-5.5892,-5.5906,-5.5892,-5.5821,-5.5809,-5.5833,-5.5857,-5.5877,-5.5868,-5.5502,-5.5802,-5.5799,-5.5797,-5.5795,-5.5794,-5.5994,-5.6042,-5.6022,-5.6052,-5.6045,-5.6048,-5.6088,-5.6053,-5.6081,-5.6099,-5.6052,-5.61,-5.6087,-5.6097,-5.6092,-5.6129,-5.6077,-5.6112,-5.612,-5.613,-5.6146,-5.5871,-5.6131,-5.613,-5.6129,-5.6129,-5.6128,0,-5.6274,-5.6255,-5.6284,-5.6287,-5.6312,-5.6239,-5.6237,-5.6262,-5.6305,-5.6298,-5.6318,-5.6361,-5.639,-5.6352,-5.6375,-5.6413,-5.638,-5.6421,-5.6418,-5.6417,-5.6191,-5.6168,-5.6447,-5.6447,-5.6447,-5.6447,-5.6447,-5.6447,-5.6422,-5.65,-5.6465,-5.6539,-5.652,-5.6565,-5.657,-5.6573,-5.6567,-5.6618,-5.6641,-5.6615,-5.6596,-5.6617,-5.6642,-5.663,-5.6643,-5.6697,-5.6674,-5.6464,-5.6432,-5.6403,-5.6381,-5.67,-5.67,-5.6895,-5.6897,-5.6899]},{"header":{"parameterUnit":"m.s-1","parameterCategory":1,"la1":30.2991,"la2":30.254,"lo1":-89.0895,"lo2":-89.0444,"dy":0.0017,"dx":0.0017,"nx":28,"ny":28,"refTime":"2023-10-10T09:00:00:Z","depth":0,"parameterNumber":3,"parameterNumberName":"V-component_of_WINDS"},"data":[0,0,0,0,0,0,0,0,0,0,0,0,0,0,0,0,0,0,0,0,0,0,0,0,0,0,0,0,0,0,0,0,0,0,0,0,0,0,0,0,0,0,0,0,0,0,0,0,0,0,0,0,0,0,0,0,0,0,-8.2161,-8.2161,0,-8.2133,-8.2133,-8.2132,-8.1937,-8.1932,-8.1928,-8.1923,-8.1895,-8.1899,-8.1903,0,0,0,0,0,0,0,0,0,0,0,0,0,-8.2046,-8.2049,-8.2161,-8.2161,-8.216,-8.2133,-8.2133,-8.2132,-8.1938,-8.1932,-8.1926,-8.1921,-8.1894,-8.1899,-8.1903,0,0,0,0,0,0,0,0,0,0,0,0,0,-8.2065,-8.205,-8.2161,-8.206,-8.2051,-8.2133,-8.2133,-8.2132,-8.1939,-8.1932,-8.1925,-8.1918,-8.1893,-8.1898,-8.1904,-8.2081,0,0,-8.1921,-8.1923,0,0,0,0,0,0,0,0,-8.2064,-8.2069,-8.2075,-8.2067,-8.2057,-8.2031,-8.2082,-8.2115,-8.1941,-8.1982,-8.1923,-8.1915,-8.1947,-8.1947,-8.1958,-8.208,-8.2079,-8.1921,-8.1925,-8.1927,-8.1929,0,0,0,0,0,0,0,-8.2063,-8.2069,-8.215,-8.2076,-8.2064,-8.2016,-8.2011,-8.2087,-8.2005,-8.1978,-8.1963,-8.1963,-8.194,-8.1953,-8.1956,-8.2078,-8.1921,-8.1926,-8.1929,-8.1932,-8.2345,-8.2352,0,0,0,0,0,0,-8.2076,-8.2069,-8.2151,-8.2149,-8.2043,-8.2024,-8.2018,-8.2047,-8.2003,-8.199,-8.1969,-8.1954,-8.1947,-8.1949,-8.1954,-8.2159,-8.1927,-8.1932,-8.1935,-8.2337,-8.2347,-8.2355,0,0,0,0,0,0,-8.2074,-8.2085,-8.2152,-8.2105,-8.211,-8.2034,-8.2067,-8.205,-8.2062,-8.1997,-8.1981,-8.1997,-8.1941,-8.1946,-8.2051,-8.2155,-8.1935,-8.194,-8.2328,-8.234,-8.2351,-8.2571,0,0,0,0,0,0,-8.2071,-8.2085,-8.2152,-8.2108,-8.2113,-8.225,-8.2074,-8.2055,-8.2072,-8.2052,-8.2019,-8.2006,-8.1936,-8.2044,-8.2057,-8.2159,-8.1944,-8.2319,-8.2334,-8.2347,-8.2554,-8.2589,-8.2618,0,0,0,0,0,-8.2068,-8.2215,-8.2156,-8.2167,-8.2195,-8.2256,-8.2259,-8.2175,-8.2082,-8.2148,-8.2106,-8.2008,-8.2142,-8.2056,-8.2069,-8.2175,-8.2312,-8.2329,-8.2346,-8.254,-8.2582,-8.2618,0,0,0,0,0,0,-8.2273,-8.2208,-8.2142,-8.2279,-8.2275,-8.2223,-8.2305,-8.2222,-8.2245,-8.2225,-8.2119,-8.2114,-8.2235,-8.2215,-8.212,-8.2344,-8.221,-8.2231,-8.2353,-8.2392,-8.2424,-8.2426,-8.1949,0,0,0,0,0,-8.2335,-8.239,-8.2329,-8.2457,-8.2458,-8.2383,-8.2406,-8.2341,-8.2332,-8.233,-8.2295,-8.2291,-8.2331,-8.2361,-8.2395,-8.255,-8.254,-8.2629,-8.2661,-8.2688,-8.2707,-8.2789,-8.2827,-8.2411,-8.2411,-8.2411,0,0,-8.2462,-8.2433,-8.2474,-8.2497,-8.2486,-8.2546,-8.2382,-8.2452,-8.2495,-8.234,-8.2437,-8.2412,-8.24,-8.2531,-8.2587,-8.2518,-8.282,-8.271,-8.2732,-8.2736,-8.281,-8.285,-8.2885,-8.2423,-8.2421,-8.2419,0,0,-8.2724,-8.2708,-8.2812,-8.2804,-8.279,-8.2738,-8.2764,-8.2725,-8.2702,-8.2798,-8.2683,-8.2733,-8.2806,-8.2802,-8.281,-8.3071,-8.2982,-8.3085,-8.3253,-8.3333,-8.3366,-8.3394,-8.3488,-8.3523,-8.3104,-8.3105,-8.3105,0,-8.2884,-8.2969,-8.2876,-8.2953,-8.2967,-8.283,-8.2934,-8.2931,-8.293,-8.2942,-8.2865,-8.2953,-8.2936,-8.3064,-8.3128,-8.3139,-8.3165,-8.3089,-8.3369,-8.3396,-8.3422,-8.351,-8.3546,-8.3118,-8.3116,-8.3115,-8.3114,0,-8.3167,-8.3228,-8.3313,-8.3315,-8.3338,-8.3429,-8.335,-8.3384,-8.3318,-8.3275,-8.3375,-8.3349,-8.3375,-8.3401,-8.3337,-8.3521,-8.3479,-8.3387,-8.325,-8.3476,-8.3557,-8.359,-8.3136,-8.3131,-8.3127,-8.3124,0,0,-8.3558,-8.3506,-8.3539,-8.3538,-8.3512,-8.3558,-8.3642,-8.3668,-8.37,-8.3703,-8.3772,-8.3837,-8.3752,-8.3761,-8.3695,-8.3766,-8.3976,-8.3665,-8.3663,-8.3724,-8.4178,-8.4248,-8.4288,-8.3916,-8.3922,-8.3927,-8.4179,0,-8.381,-8.3952,-8.387,-8.4024,-8.4079,-8.3949,-8.4023,-8.4016,-8.3978,-8.402,-8.3977,-8.4026,-8.3909,-8.3914,-8.3978,-8.3937,-8.4065,-8.3917,-8.398,-8.3983,-8.3987,-8.4331,-8.4404,-8.4644,-8.421,-8.4215,-8.4219,0,-8.4123,-8.4139,-8.4299,-8.4262,-8.4282,-8.4351,-8.4368,-8.4409,-8.4397,-8.4365,-8.4376,-8.4293,-8.4374,-8.4239,-8.4349,-8.425,-8.4271,-8.4255,-8.4262,-8.4265,-8.4115,-8.4344,-8.4718,-8.4754,-8.4268,-8.4264,-8.4261,0,-8.4393,-8.4455,-8.4558,-8.4561,-8.4521,-8.4572,-8.4558,-8.4539,-8.456,-8.4575,-8.4588,-8.4613,-8.4627,-8.4648,-8.4574,-8.4482,-8.4695,-8.4553,-8.4671,-8.4673,-8.4722,-8.472,-8.5106,-8.4735,-8.4735,-8.4734,-8.4733,0,-8.4683,-8.4786,-8.4679,-8.4743,-8.4854,-8.476,-8.4873,-8.4844,-8.4829,-8.4885,-8.4775,-8.483,-8.4729,-8.4774,-8.4717,-8.4817,-8.4824,-8.4801,-8.4785,-8.4811,-8.4815,-8.4824,-8.4806,-8.4743,-8.4741,-8.4739,-8.4738,0,-8.5004,-8.4936,-8.504,-8.4994,-8.4984,-8.5069,-8.5029,-8.5086,-8.5041,-8.5114,-8.5125,-8.5055,-8.5102,-8.503,-8.507,-8.5031,-8.5171,-8.5129,-8.5175,-8.5163,-8.5285,-8.5275,-8.5691,-8.5741,-8.5338,-8.5342,-8.5345,0,-8.5194,-8.527,-8.5231,-8.5261,-8.5253,-8.5302,-8.5323,-8.5233,-8.5259,-8.5252,-8.5311,-8.5349,-8.5374,-8.5457,-8.5409,-8.5439,-8.5397,-8.5541,-8.5401,-8.5426,-8.54,-8.5397,-8.5405,-8.557,-8.5575,-8.5579,-8.5582,0,-8.5538,-8.5501,-8.5535,-8.5558,-8.5586,-8.5599,-8.5605,-8.5636,-8.5541,-8.5576,-8.5623,-8.5643,-8.5683,-8.5723,-8.5741,-8.5726,-8.564,-8.5626,-8.5655,-8.5684,-8.5708,-8.5697,-8.5254,-8.5617,-8.5614,-8.5611,-8.5609,-8.5608,-8.5799,-8.5861,-8.5844,-8.5885,-8.588,-8.5888,-8.5939,-8.5901,-8.5938,-8.5964,-8.5908,-8.597,-8.5957,-8.5972,-8.5967,-8.6014,-8.5951,-8.5993,-8.6003,-8.6015,-8.6035,-8.57,-8.6016,-8.6015,-8.6014,-8.6013,-8.6013,0,-8.6138,-8.6121,-8.616,-8.6171,-8.6205,-8.6119,-8.6121,-8.6154,-8.6209,-8.6204,-8.6232,-8.6287,-8.6325,-8.6281,-8.6311,-8.6357,-8.6318,-8.6368,-8.6364,-8.6362,-8.6089,-8.6061,-8.6399,-8.6399,-8.6399,-8.6399,-8.6399,-8.6399,-8.6319,-8.6419,-8.638,-8.6476,-8.6457,-8.6516,-8.6525,-8.6532,-8.6527,-8.6593,-8.6624,-8.6595,-8.6574,-8.6602,-8.6634,-8.662,-8.6636,-8.6701,-8.6674,-8.6419,-8.6381,-8.6345,-8.6319,-8.6705,-8.6706,-8.6943,-8.6945,-8.6947]}]]